Ronchi Legionari, Italy

7:31 AM CET on February 28, 2017 (GMT +0100)
Ronchi Dei Legionari

Weather History for LIPQ - December, 2012

Change the Weather History Date:

Wednesday, December 26, 2012

  Actual Average Record
Temperature  
Mean Temperature 45 °F -  
Max Temperature 51 °F 44 °F 58 °F (2016)
Min Temperature 39 °F 30 °F 23 °F (1998)
Degree Days  
Heating Degree Days 20    
Moisture  
Dew Point 44 °F    
Average Humidity 87    
Maximum Humidity 100    
Minimum Humidity 81    
Precipitation  
Precipitation 0.00 in 0.11 in - ()
Sea Level Pressure  
Sea Level Pressure 29.99 in    
Wind  
Wind Speed 1 mph ()    
Max Wind Speed 5 mph    
Max Gust Speed -    
Visibility 1.1 miles    
Events Fog , Rain    
Averages and records for this station are not official NWS values.
T = Trace of Precipitation, MM = Missing Value Source: Averaged Metar Reports

Daily Weather History Graph

Daily Weather History Graph

Search for Another Location

Airport or City:

Trip Planner

Search our weather history database for the weather conditions in past years. The results will help you decide how hot, cold, wet, or windy it might be!

Date:

Astronomy

Dec. 26, 2012 Rise Set
Actual Time 7:46 AM CET 4:27 PM CET
Civil Twilight 7:11 AM CET 5:01 PM CET
Nautical Twilight 6:34 AM CET 5:39 PM CET
Astronomical Twilight 5:57 AM CET 6:15 PM CET
Moon 3:08 PM CET (12/26) 5:53 AM CET (12/26)
Length of Visible Light 9h 49m
Length of Day
8h 40m
Waxing Gibbous, 97% of the Moon is Illuminated
Dec 26
Waxing Gibbous
Dec 28
Full
Jan 5
Last Quarter
Jan 11
New
Jan 19
First Quarter

Hourly Weather History & Observations

Time (CET) Temp. Windchill Dew Point Humidity Pressure Visibility Wind Dir Wind Speed Gust Speed Precip Events Conditions
12:20 AM 46.4 °F - 42.8 °F 87% 30.04 in 1.9 mi Calm Calm - N/A   Mostly Cloudy
12:50 AM 46.4 °F - 42.8 °F 87% 30.04 in 2.2 mi Calm Calm - N/A   Mostly Cloudy
1:20 AM 46.4 °F - 42.8 °F 87% 30.04 in 2.2 mi Variable 1.2 mph - N/A   Mostly Cloudy
1:50 AM 46.4 °F - 42.8 °F 87% 30.04 in 2.2 mi Variable 1.2 mph - N/A   Mostly Cloudy
2:20 AM 48.2 °F - 42.8 °F 82% 30.04 in 1.9 mi Variable 1.2 mph - N/A   Mostly Cloudy
2:50 AM 46.4 °F - 42.8 °F 87% 30.04 in 1.9 mi Calm Calm - N/A   Mostly Cloudy
3:20 AM 46.4 °F - 42.8 °F 87% 30.04 in 1.2 mi Variable 1.2 mph - N/A   Mostly Cloudy
3:50 AM 46.4 °F - 41.0 °F 81% 30.01 in 1.6 mi Calm Calm - N/A   Mostly Cloudy
4:20 AM 46.4 °F - 42.8 °F 87% 30.01 in 1.6 mi Calm Calm - N/A   Mostly Cloudy
4:50 AM 46.4 °F - 42.8 °F 87% 30.01 in 1.6 mi Variable 1.2 mph - N/A   Mostly Cloudy
5:20 AM 46.4 °F - 42.8 °F 87% 30.01 in 1.2 mi Variable 1.2 mph - N/A   Mostly Cloudy
5:50 AM 46.4 °F - 41.0 °F 81% 29.98 in 1.2 mi Calm Calm - N/A   Mostly Cloudy
6:20 AM 46.4 °F - 42.8 °F 87% 29.98 in 1.6 mi Calm Calm - N/A   Mostly Cloudy
6:50 AM 46.4 °F - 42.8 °F 87% 29.98 in 1.6 mi Variable 2.3 mph - N/A   Mostly Cloudy
7:20 AM 46.4 °F - 42.8 °F 87% 29.98 in 1.9 mi Variable 1.2 mph - N/A   Mostly Cloudy
7:50 AM 46.4 °F - 42.8 °F 87% 29.98 in 1.6 mi Calm Calm - N/A   Mostly Cloudy
8:20 AM 48.2 °F - 42.8 °F 82% 29.98 in 1.2 mi Calm Calm - N/A   Mostly Cloudy
8:50 AM 48.2 °F - 42.8 °F 82% 29.98 in 1.2 mi Variable 1.2 mph - N/A   Mostly Cloudy
9:20 AM 46.4 °F - 42.8 °F 87% 29.98 in 1.2 mi Variable 1.2 mph - N/A   Mostly Cloudy
9:50 AM 48.2 °F - 44.6 °F 87% 29.98 in 1.2 mi Variable 1.2 mph - N/A   Light Drizzle
10:20 AM 48.2 °F - 44.6 °F 87% 29.98 in 0.9 mi Variable 1.2 mph - N/A   Light Drizzle
10:50 AM 50.0 °F - 46.4 °F 87% 29.98 in 0.5 mi Calm Calm - N/A Fog Light Drizzle
11:20 AM 50.0 °F - 48.2 °F 94% 29.98 in 0.3 mi Variable 1.2 mph - N/A Fog Light Drizzle
11:50 AM 51.8 °F - 48.2 °F 88% 29.98 in 0.5 mi Calm Calm - N/A Fog Light Drizzle
12:20 PM 50.0 °F - 48.2 °F 94% 29.95 in 0.6 mi Variable 1.2 mph - N/A Rain Light Rain
12:50 PM 51.8 °F - 48.2 °F 88% 29.95 in 0.7 mi Calm Calm - N/A Rain Light Rain
1:20 PM 50.0 °F - 46.4 °F 87% 29.95 in 0.7 mi Calm Calm - N/A Rain Light Rain
1:50 PM 50.0 °F - 46.4 °F 87% 29.95 in 0.6 mi Calm Calm - N/A Fog , Rain Light Rain
2:20 PM 50.0 °F - 46.4 °F 87% 29.92 in 0.7 mi Calm Calm - N/A Rain Light Rain
2:50 PM 50.0 °F - 46.4 °F 87% 29.92 in 0.7 mi Variable 1.2 mph - N/A Rain Rain
3:20 PM 50.0 °F - 46.4 °F 87% 29.95 in 0.8 mi Variable 3.5 mph - N/A Rain Rain
3:50 PM 48.2 °F - 44.6 °F 87% 29.92 in 0.9 mi Variable 2.3 mph - N/A Rain Rain
4:20 PM 48.2 °F - 44.6 °F 87% 29.92 in 1.2 mi Variable 2.3 mph - N/A   Overcast
4:50 PM 48.2 °F - 44.6 °F 87% 29.95 in 1.2 mi Variable 2.3 mph - N/A   Light Drizzle
5:20 PM 48.2 °F - 48.2 °F 100% 29.95 in 1.2 mi Variable 1.2 mph - N/A   Overcast
5:50 PM 46.4 °F - 46.4 °F 100% 29.95 in 1.2 mi Variable 2.3 mph - N/A   Overcast
6:20 PM 46.4 °F - 46.4 °F 100% 29.95 in 1.2 mi Variable 1.2 mph - N/A   Overcast
6:50 PM 46.4 °F - 42.8 °F 87% 29.98 in 1.2 mi Variable 1.2 mph - N/A   Overcast
7:20 PM 48.2 °F - 42.8 °F 82% 29.98 in 0.9 mi Variable 2.3 mph - N/A   Overcast
7:50 PM 46.4 °F - 44.6 °F 93% 30.01 in - Variable 2.3 mph - N/A Fog Fog
8:20 PM 46.4 °F 44.3 °F 44.6 °F 93% 30.01 in 0.4 mi SE 4.6 mph - N/A Fog Fog
8:50 PM 46.4 °F 45.2 °F 44.6 °F 93% 30.01 in 0.7 mi Variable 3.5 mph - N/A Fog Patches of Fog
9:20 PM 46.4 °F 45.2 °F 42.8 °F 87% 30.04 in 1.2 mi Variable 3.5 mph - N/A Fog Patches of Fog
9:50 PM 42.8 °F - 39.2 °F 87% 30.04 in 0.9 mi Calm Calm - N/A Fog Patches of Fog
10:20 PM 42.8 °F - 37.4 °F 81% 30.04 in 0.1 mi Variable 2.3 mph - N/A Fog Fog
10:50 PM 39.2 °F 35.9 °F 33.8 °F 81% 30.06 in 0.1 mi WNW 4.6 mph - N/A Fog Fog
11:20 PM 41.0 °F - 35.6 °F 81% 30.06 in 0.1 mi Variable 2.3 mph - N/A Fog Fog
11:50 PM 42.8 °F 41.1 °F 39.2 °F 87% 30.09 in 0.2 mi Variable 3.5 mph - N/A Fog Fog